Gainesville, FL

4:40 AM EST on December 11, 2019 (GMT -0500)
Gainesville Regional

Weather History for KGNV - October, 2019

Change the Weather History Date:

Friday, October 18, 2019

  Actual Average Record
Temperature  
Mean Temperature 65 °F 70 °F  
Max Temperature 72 °F 81 °F 93 °F (1981)
Min Temperature 58 °F 60 °F 38 °F (1977)
Degree Days  
Heating Degree Days 0 1  
Month to date heating degree days 0 6  
Since 1 July heating degree days 0 6  
Cooling Degree Days 0 6  
Month to date cooling degree days 199 148  
Year to date cooling degree days 3215 2488  
Growing Degree Days 14 (Base 50)    
Moisture  
Dew Point 56 °F    
Average Humidity 76    
Maximum Humidity 93    
Minimum Humidity 58    
Precipitation  
Precipitation 0.12 in 0.08 in 2.00 in (1950)
Month to date precipitation 2.01 1.96  
Year to date precipitation 40.25 41.95  
Snow  
Snow 0.00 in 0.00 in 0.00 in ()
Month to date snowfall 0.0 0.0  
Since 1 July snowfall 0.0 0.0  
Since 1 September snowfall 0.0 0.0  
Snow Depth 0.00 in    
Sea Level Pressure  
Sea Level Pressure 29.96 in    
Wind  
Wind Speed 3 mph (NE)    
Max Wind Speed 9 mph    
Max Gust Speed 12 mph    
Visibility 10 miles    
Events Rain    
T = Trace of Precipitation, MM = Missing Value Source: NWS Daily Summary

Daily Weather History Graph

Daily Weather History Graph

Search for Another Location

Airport or City:

Astronomy

Oct. 18, 2019 Rise Set
Actual Time 7:32 AM EDT 6:55 PM EDT
Civil Twilight 7:08 AM EDT 7:19 PM EDT
Nautical Twilight 6:40 AM EDT 7:47 PM EDT
Astronomical Twilight 6:12 AM EDT 8:15 PM EDT
Moon 10:27 PM EDT (10/18) 11:48 AM EDT (10/18)
Length of Visible Light 12h 11m
Length of Day
11h 23m
Waning Gibbous, 79% of the Moon is Illuminated
Oct 18
Waning Gibbous
Oct 21
Last Quarter
Oct 27
New
Nov 4
First Quarter
Nov 12
Full

Hourly Weather History & Observations

Time (EDT) Temp. Dew Point Humidity Pressure Visibility Wind Dir Wind Speed Gust Speed Precip Events Conditions
12:53 AM 61.0 °F 53.1 °F 75% 29.97 in 10.0 mi Calm Calm - N/A   Clear
1:53 AM 59.0 °F 54.0 °F 83% 29.97 in 10.0 mi Calm Calm - N/A   Clear
2:53 AM 57.9 °F 54.0 °F 87% 29.96 in 10.0 mi NW 3.5 mph - N/A   Clear
3:53 AM 61.0 °F 52.0 °F 72% 29.94 in 10.0 mi NW 3.5 mph - N/A   Clear
4:53 AM 59.0 °F 54.0 °F 83% 29.92 in 10.0 mi Calm Calm - N/A   Clear
5:53 AM 61.0 °F 52.0 °F 72% 29.94 in 10.0 mi North 4.6 mph - N/A   Clear
6:41 AM 62.1 °F 51.1 °F 67% 29.96 in 10.0 mi Variable 3.5 mph - N/A   Clear
6:53 AM 62.1 °F 51.1 °F 67% 29.96 in 10.0 mi Calm Calm - N/A   Clear
7:53 AM 61.0 °F 51.1 °F 70% 29.97 in 10.0 mi Calm Calm - N/A   Clear
8:34 AM 63.0 °F 50.0 °F 63% 30.00 in 10.0 mi Calm Calm - N/A   Partly Cloudy
8:53 AM 63.0 °F 52.0 °F 67% 30.00 in 10.0 mi Calm Calm - N/A   Mostly Cloudy
9:53 AM 63.0 °F 52.0 °F 67% 30.02 in 10.0 mi NE 3.5 mph - 0.00 in Rain Light Rain
10:53 AM 66.0 °F 51.1 °F 59% 30.00 in 10.0 mi NNE 8.1 mph - 0.00 in   Mostly Cloudy
11:53 AM 66.9 °F 52.0 °F 59% 30.01 in 10.0 mi Calm Calm - N/A   Mostly Cloudy
12:53 PM 68.0 °F 54.0 °F 61% 29.99 in 10.0 mi Calm Calm - N/A   Mostly Cloudy
1:53 PM 70.0 °F 55.9 °F 61% 29.97 in 10.0 mi Variable 3.5 mph - N/A   Mostly Cloudy
2:53 PM 71.1 °F 57.0 °F 61% 29.96 in 10.0 mi ENE 4.6 mph - N/A   Scattered Clouds
3:53 PM 70.0 °F 60.1 °F 71% 29.96 in 10.0 mi NNE 3.5 mph - 0.00 in Rain Light Rain
4:53 PM 69.1 °F 62.1 °F 78% 29.94 in 10.0 mi NE 5.8 mph - 0.00 in Rain Light Rain
5:53 PM 68.0 °F 63.0 °F 84% 29.94 in 10.0 mi ENE 4.6 mph - 0.00 in Rain Light Rain
6:53 PM 66.9 °F 63.0 °F 87% 29.91 in 10.0 mi NE 4.6 mph - 0.00 in   Mostly Cloudy
7:53 PM 66.9 °F 63.0 °F 87% 29.93 in 10.0 mi East 5.8 mph - 0.00 in Rain Light Rain
8:53 PM 66.9 °F 62.1 °F 84% 29.92 in 10.0 mi East 8.1 mph - 0.00 in Rain Light Rain
9:53 PM 66.9 °F 62.1 °F 84% 29.93 in 10.0 mi Calm Calm - 0.00 in   Mostly Cloudy
10:53 PM 64.9 °F 63.0 °F 93% 29.94 in 10.0 mi East 3.5 mph - 0.08 in Rain Light Rain
11:53 PM 64.9 °F 63.0 °F 93% 29.91 in - East 6.9 mph - 0.03 in Rain Light Rain